�������l�o���
Date,Time,MP-1(��Sv/h),MP-2(��Sv/h),MP-3(��Sv/h),MP-4(��Sv/h),MP-5(��Sv/h),MP-6(��Sv/h),MP-7(��Sv/h),MP-8(��Sv/h),����,����(m/s),���J
2022/03/10,00:00,0.593,0.887,0.558,1.089,0.774,0.351,0.612,0.578,-,CALM,��
2022/03/10,00:10,0.594,0.888,0.557,1.090,0.775,0.352,0.613,0.580,-,CALM,��
2022/03/10,00:20,0.593,0.887,0.558,1.090,0.774,0.352,0.614,0.578,-,CALM,��
2022/03/10,00:30,0.594,0.887,0.559,1.090,0.772,0.352,0.613,0.579,���k��,0.8,��
2022/03/10,00:40,0.592,0.887,0.558,1.090,0.771,0.352,0.614,0.578,�쓌,1.1,��
2022/03/10,00:50,0.592,0.885,0.556,1.091,0.775,0.352,0.613,0.579,���쓌,1.5,��
2022/03/10,01:00,0.593,0.887,0.560,1.090,0.775,0.352,0.612,0.580,-,CALM,��
2022/03/10,01:10,0.593,0.886,0.558,1.089,0.773,0.351,0.614,0.579,��쓌,0.9,��
2022/03/10,01:20,0.594,0.887,0.557,1.091,0.773,0.353,0.614,0.580,��쓌,0.8,��
2022/03/10,01:30,0.594,0.885,0.557,1.091,0.774,0.353,0.612,0.578,-,CALM,��
2022/03/10,01:40,0.592,0.885,0.557,1.090,0.775,0.351,0.614,0.579,-,CALM,��
2022/03/10,01:50,0.594,0.887,0.559,1.090,0.776,0.352,0.613,0.579,-,CALM,��
2022/03/10,02:00,0.592,0.884,0.558,1.090,0.773,0.352,0.614,0.579,���쓌,0.6,��
2022/03/10,02:10,0.593,0.887,0.559,1.089,0.773,0.352,0.613,0.580,-,CALM,��
2022/03/10,02:20,0.593,0.886,0.559,1.091,0.773,0.352,0.613,0.581,��쓌,0.6,��
2022/03/10,02:30,0.594,0.885,0.557,1.090,0.773,0.352,0.612,0.579,-,CALM,��
2022/03/10,02:40,0.592,0.886,0.557,1.091,0.772,0.351,0.614,0.578,�k��,0.6,��
2022/03/10,02:50,0.592,0.888,0.557,1.089,0.773,0.351,0.612,0.580,�k��,0.8,��
2022/03/10,03:00,0.593,0.886,0.558,1.089,0.774,0.352,0.613,0.580,��,1.5,��
2022/03/10,03:10,0.593,0.887,0.558,1.091,0.771,0.350,0.614,0.579,���k��,2.2,��
2022/03/10,03:20,0.594,0.886,0.558,1.089,0.773,0.351,0.614,0.580,���k��,1.7,��
2022/03/10,03:30,0.593,0.884,0.558,1.090,0.773,0.349,0.613,0.579,��,1.2,��
2022/03/10,03:40,0.592,0.886,0.558,1.089,0.773,0.351,0.613,0.580,���k��,1.7,��
2022/03/10,03:50,0.592,0.883,0.557,1.089,0.772,0.352,0.614,0.580,���k��,3.5,��
2022/03/10,04:00,0.592,0.886,0.558,1.089,0.774,0.350,0.612,0.580,���k��,3.2,��
2022/03/10,04:10,0.593,0.885,0.556,1.091,0.772,0.352,0.613,0.579,��,3.3,��
2022/03/10,04:20,0.591,0.886,0.557,1.089,0.772,0.351,0.614,0.579,���k��,3.1,��
2022/03/10,04:30,0.593,0.885,0.557,1.089,0.773,0.352,0.613,0.579,���k��,3.3,��
2022/03/10,04:40,0.594,0.885,0.556,1.090,0.772,0.353,0.613,0.579,�k��,2.5,��
2022/03/10,04:50,0.592,0.885,0.558,1.090,0.773,0.352,0.614,0.580,�k��,3.3,��
2022/03/10,05:00,0.592,0.885,0.556,1.091,0.771,0.351,0.612,0.578,�k��,3.9,��
2022/03/10,05:10,0.591,0.885,0.557,1.090,0.772,0.351,0.614,0.579,�k��,4.2,��
2022/03/10,05:20,0.592,0.885,0.558,1.088,0.771,0.351,0.612,0.580,�k��,4.3,��
2022/03/10,05:30,0.593,0.885,0.557,1.089,0.774,0.352,0.613,0.580,�k��,4.8,��
2022/03/10,05:40,0.592,0.887,0.558,1.089,0.773,0.352,0.614,0.579,�k��,4.4,��
2022/03/10,05:50,0.591,0.884,0.557,1.091,0.773,0.351,0.613,0.579,�k��,4.2,��
2022/03/10,06:00,0.590,0.886,0.560,1.090,0.774,0.353,0.612,0.579,�k�k��,3.6,��
2022/03/10,06:10,0.593,0.886,0.557,1.090,0.774,0.351,0.613,0.579,�k�k��,4.2,��
2022/03/10,06:20,0.591,0.887,0.558,1.090,0.772,0.352,0.612,0.579,�k�k��,4.6,��
2022/03/10,06:30,0.592,0.884,0.558,1.088,0.772,0.352,0.613,0.580,�k��,3.4,��
2022/03/10,06:40,0.594,0.886,0.556,1.089,0.773,0.351,0.612,0.579,�k��,2.6,��
2022/03/10,06:50,0.593,0.886,0.557,1.089,0.771,0.352,0.611,0.579,�k�k��,2.6,��
2022/03/10,07:00,0.595,0.885,0.558,1.090,0.774,0.352,0.613,0.580,�k��,2.8,��
2022/03/10,07:10,0.592,0.886,0.558,1.091,0.772,0.351,0.613,0.577,�k�k��,2.6,��
2022/03/10,07:20,0.594,0.885,0.557,1.089,0.772,0.353,0.614,0.579,�k�k��,3.0,��
2022/03/10,07:30,0.594,0.888,0.557,1.091,0.774,0.351,0.613,0.578,�k�k��,3.0,��
2022/03/10,07:40,0.592,0.887,0.559,1.092,0.772,0.350,0.613,0.579,�k�k��,3.3,��
2022/03/10,07:50,0.592,0.886,0.558,1.090,0.771,0.352,0.615,0.579,�k,2.8,��
2022/03/10,08:00,0.593,0.886,0.558,1.093,0.772,0.352,0.615,0.581,�k,2.0,��
2022/03/10,08:10,0.593,0.884,0.559,1.093,0.773,0.353,0.614,0.580,�k,2.0,��
2022/03/10,08:20,0.594,0.884,0.558,1.091,0.772,0.352,0.616,0.579,�k�k��,1.7,��
2022/03/10,08:30,0.595,0.885,0.559,1.090,0.772,0.352,0.613,0.580,�k�k��,2.0,��
2022/03/10,08:40,0.594,0.884,0.556,1.089,0.774,0.352,0.616,0.579,�k�k��,2.3,��
2022/03/10,08:50,0.594,0.883,0.553,1.091,0.773,0.352,0.616,0.581,�k�k��,2.0,��
2022/03/10,09:00,0.595,0.884,0.551,1.091,0.773,0.352,0.614,0.581,�k��,2.2,��
2022/03/10,09:10,0.594,0.881,0.553,1.092,0.772,0.351,0.613,0.580,�k��,2.3,��
2022/03/10,09:20,0.595,0.884,0.551,1.090,0.775,0.352,0.613,0.580,�k��,2.0,��
2022/03/10,09:30,0.593,0.883,0.554,1.091,0.774,0.353,0.614,0.580,�k��,2.9,��
2022/03/10,09:40,0.596,0.882,0.556,1.092,0.772,0.352,0.614,0.581,�k��,2.9,��
2022/03/10,09:50,0.596,0.882,0.555,1.091,0.773,0.353,0.614,0.581,���k��,2.9,��
2022/03/10,10:00,0.594,0.883,0.554,1.093,0.776,0.352,0.612,0.580,���k��,2.8,��
2022/03/10,10:10,0.595,0.882,0.556,1.092,0.773,0.352,0.613,0.578,���k��,2.6,��
2022/03/10,10:20,0.595,0.884,0.556,1.092,0.774,0.352,0.614,0.579,��,3.2,��
2022/03/10,10:30,0.595,0.882,0.557,1.089,0.776,0.354,0.613,0.580,��,3.4,��
2022/03/10,10:40,0.595,0.883,0.557,1.091,0.775,0.354,0.613,0.581,��,3.1,��
2022/03/10,10:50,0.595,0.885,0.557,1.090,0.774,0.354,0.614,0.580,���쓌,2.8,��
2022/03/10,11:00,0.596,0.886,0.558,1.093,0.774,0.353,0.614,0.578,��,2.6,��
2022/03/10,11:10,0.595,0.882,0.558,1.091,0.775,0.352,0.612,0.578,���쓌,2.9,��
2022/03/10,11:20,0.594,0.884,0.557,1.090,0.772,0.352,0.612,0.578,��,2.9,��
2022/03/10,11:30,0.595,0.882,0.555,1.091,0.775,0.352,0.613,0.578,���k��,2.6,��
2022/03/10,11:40,0.594,0.886,0.555,1.093,0.775,0.353,0.613,0.578,���쓌,2.6,��
2022/03/10,11:50,0.594,0.883,0.558,1.091,0.774,0.351,0.612,0.580,���쓌,3.0,��
2022/03/10,12:00,0.593,0.886,0.556,1.091,0.773,0.351,0.613,0.580,���쓌,3.0,��
2022/03/10,12:10,0.595,0.884,0.556,1.090,0.774,0.352,0.613,0.579,��,2.6,��
2022/03/10,12:20,0.594,0.885,0.558,1.093,0.775,0.353,0.613,0.578,���쓌,3.5,��
2022/03/10,12:30,0.594,0.887,0.557,1.091,0.775,0.352,0.613,0.578,���쓌,3.6,��
2022/03/10,12:40,0.595,0.886,0.557,1.093,0.772,0.351,0.614,0.578,���쓌,3.3,��
2022/03/10,12:50,0.594,0.886,0.559,1.090,0.773,0.351,0.612,0.579,�쓌,3.6,��
2022/03/10,13:00,0.595,0.885,0.557,1.092,0.773,0.351,0.614,0.581,�쓌,3.6,��
2022/03/10,13:10,0.594,0.886,0.556,1.092,0.774,0.352,0.612,0.580,�쓌,3.9,��
2022/03/10,13:20,0.595,0.884,0.558,1.093,0.774,0.352,0.613,0.579,���쓌,3.5,��
2022/03/10,13:30,0.595,0.885,0.556,1.091,0.772,0.352,0.614,0.580,���쓌,3.3,��
2022/03/10,13:40,0.595,0.885,0.556,1.091,0.773,0.351,0.613,0.579,�쓌,3.1,��
2022/03/10,13:50,0.595,0.883,0.555,1.091,0.773,0.352,0.613,0.579,�쓌,3.3,��
2022/03/10,14:00,0.594,0.884,0.556,1.092,0.775,0.352,0.612,0.580,���쓌,3.6,��
2022/03/10,14:10,0.594,0.884,0.556,1.090,0.773,0.351,0.613,0.579,�쓌,3.7,��
2022/03/10,14:20,0.594,0.885,0.556,1.092,0.773,0.352,0.613,0.578,���쓌,3.4,��
2022/03/10,14:30,0.593,0.883,0.556,1.092,0.772,0.352,0.612,0.579,���쓌,3.1,��
2022/03/10,14:40,0.594,0.887,0.554,1.090,0.774,0.352,0.613,0.578,���쓌,2.6,��
2022/03/10,14:50,0.592,0.883,0.556,1.093,0.773,0.353,0.613,0.578,�쓌,3.6,��
2022/03/10,15:00,0.594,0.886,0.557,1.092,0.775,0.352,0.613,0.580,���쓌,3.3,��
2022/03/10,15:10,0.596,0.885,0.558,1.092,0.774,0.352,0.612,0.578,���쓌,2.9,��
2022/03/10,15:20,0.595,0.887,0.557,1.090,0.774,0.353,0.614,0.579,���쓌,2.9,��
2022/03/10,15:30,0.593,0.888,0.556,1.092,0.775,0.353,0.613,0.579,��,2.0,��
2022/03/10,15:40,0.597,0.888,0.558,1.092,0.776,0.352,0.612,0.577,���쓌,3.3,��
2022/03/10,15:50,0.595,0.889,0.558,1.094,0.775,0.354,0.612,0.579,���쓌,2.9,��
2022/03/10,16:00,0.594,0.888,0.558,1.091,0.774,0.353,0.613,0.578,���쓌,3.0,��
2022/03/10,16:10,0.594,0.890,0.558,1.089,0.773,0.352,0.613,0.581,���쓌,2.3,��
2022/03/10,16:20,0.597,0.889,0.558,1.092,0.772,0.353,0.612,0.583,�쓌,3.1,��
2022/03/10,16:30,0.595,0.889,0.559,1.092,0.774,0.352,0.612,0.581,�쓌,3.1,��
2022/03/10,16:40,0.595,0.887,0.558,1.092,0.774,0.351,0.613,0.581,�쓌,3.1,��
2022/03/10,16:50,0.594,0.888,0.558,1.093,0.775,0.353,0.613,0.582,�쓌,2.8,��
2022/03/10,17:00,0.593,0.887,0.557,1.092,0.774,0.352,0.615,0.580,��쓌,2.5,��
2022/03/10,17:10,0.595,0.888,0.556,1.090,0.774,0.351,0.615,0.581,��쓌,3.1,��
2022/03/10,17:20,0.595,0.888,0.556,1.092,0.776,0.353,0.614,0.580,��쓌,3.6,��
2022/03/10,17:30,0.593,0.889,0.559,1.090,0.775,0.352,0.615,0.580,��쓌,3.4,��
2022/03/10,17:40,0.594,0.887,0.555,1.093,0.773,0.352,0.613,0.580,��쓌,3.5,��
2022/03/10,17:50,0.595,0.888,0.558,1.090,0.776,0.353,0.615,0.581,��쓌,3.6,��
2022/03/10,18:00,0.594,0.887,0.558,1.092,0.776,0.352,0.614,0.578,��쓌,3.9,��
2022/03/10,18:10,0.594,0.888,0.557,1.090,0.775,0.352,0.614,0.581,��쓌,3.6,��
2022/03/10,18:20,0.593,0.887,0.557,1.091,0.774,0.353,0.616,0.580,��쓌,2.6,��
2022/03/10,18:30,0.594,0.886,0.558,1.092,0.774,0.352,0.614,0.580,��쓌,2.8,��
2022/03/10,18:40,0.593,0.888,0.558,1.092,0.776,0.352,0.613,0.579,��쓌,3.9,��
2022/03/10,18:50,0.593,0.888,0.557,1.091,0.774,0.351,0.615,0.580,��,3.7,��
2022/03/10,19:00,0.594,0.889,0.557,1.091,0.775,0.350,0.614,0.580,��,3.4,��
2022/03/10,19:10,0.595,0.889,0.558,1.090,0.776,0.350,0.613,0.582,��,2.0,��
2022/03/10,19:20,0.592,0.889,0.556,1.092,0.775,0.352,0.614,0.580,��,4.1,��
2022/03/10,19:30,0.594,0.889,0.555,1.089,0.775,0.350,0.613,0.579,��,4.6,��
2022/03/10,19:40,0.594,0.889,0.557,1.090,0.775,0.352,0.613,0.580,��,4.2,��
2022/03/10,19:50,0.595,0.887,0.557,1.093,0.776,0.351,0.616,0.580,-,CALM,��
2022/03/10,20:00,0.596,0.892,0.557,1.092,0.775,0.352,0.614,0.580,��,3.8,��
2022/03/10,20:10,0.594,0.888,0.556,1.094,0.774,0.352,0.614,0.580,��,4.2,��
2022/03/10,20:20,0.594,0.888,0.556,1.089,0.774,0.351,0.613,0.580,��,5.4,��
2022/03/10,20:30,0.593,0.890,0.557,1.089,0.774,0.351,0.614,0.580,��,6.1,��
2022/03/10,20:40,0.594,0.889,0.559,1.089,0.776,0.351,0.614,0.579,��,2.3,��
2022/03/10,20:50,0.594,0.886,0.557,1.093,0.775,0.352,0.614,0.580,��,2.6,��
2022/03/10,21:00,0.593,0.889,0.558,1.089,0.775,0.352,0.613,0.578,��,6.7,��
2022/03/10,21:10,0.593,0.887,0.556,1.089,0.774,0.352,0.614,0.579,��,6.5,��
2022/03/10,21:20,0.595,0.886,0.556,1.092,0.775,0.351,0.613,0.579,��,7.2,��
2022/03/10,21:30,0.593,0.886,0.556,1.091,0.775,0.351,0.614,0.579,��,7.2,��
2022/03/10,21:40,0.592,0.888,0.556,1.091,0.774,0.352,0.615,0.580,��,7.9,��
2022/03/10,21:50,0.593,0.887,0.556,1.090,0.775,0.351,0.613,0.579,��,8.0,��
2022/03/10,22:00,0.593,0.888,0.555,1.089,0.775,0.352,0.613,0.578,��,8.5,��
2022/03/10,22:10,0.595,0.888,0.557,1.091,0.774,0.350,0.614,0.580,��,9.2,��
2022/03/10,22:20,0.594,0.888,0.554,1.092,0.775,0.352,0.615,0.581,��,9.0,��
2022/03/10,22:30,0.591,0.885,0.555,1.090,0.775,0.352,0.614,0.579,��,7.9,��
2022/03/10,22:40,0.592,0.889,0.556,1.090,0.774,0.352,0.614,0.580,��,8.1,��
2022/03/10,22:50,0.592,0.888,0.556,1.089,0.774,0.351,0.613,0.578,��,8.2,��
2022/03/10,23:00,0.595,0.887,0.557,1.092,0.775,0.352,0.614,0.580,��,7.2,��
2022/03/10,23:10,0.594,0.889,0.555,1.090,0.775,0.352,0.613,0.580,��,6.7,��
2022/03/10,23:20,0.594,0.890,0.556,1.091,0.774,0.352,0.614,0.581,��,6.8,��
2022/03/10,23:30,0.595,0.887,0.557,1.093,0.774,0.352,0.614,0.581,��,6.4,��
2022/03/10,23:40,0.592,0.889,0.556,1.091,0.774,0.352,0.615,0.580,��,6.2,��
2022/03/10,23:50,0.593,0.889,0.557,1.091,0.775,0.354,0.613,0.579,��,6.1,��
